Regional Weather Roundup
Issued by NWS

Home | Current Version | Previous Version | Graphics & Text | Print | Product List | Glossary Off
Versions: 1 2 3 4 5 6 7 8 9 10 11 12 13 14 15 16 17 18 19 20 21 22 23 24 25 26 27 28 29 30 31 32 33 34 35 36 37 38 39 40 41 42 43 44 45 46 47 48 49 50

000
ASUS43 KMKX 301759
RWRWI

WISCONSIN REGIONAL WEATHER ROUNDUP
NATIONAL WEATHER SERVICE MILWAUKEE/SULLIVAN WI
100 PM CDT MON MAR 30 2015

NOTE: "FAIR" INDICATES FEW OR NO CLOUDS BELOW 12,000 FEET WITH NO
SIGNIFICANT WEATHER AND/OR OBSTRUCTIONS TO VISIBILITY.

WIZ001-002-006>008-014>016-023>028-301900-
NORTHWEST WISCONSIN

CITY           SKY/WX    TMP DP  RH WIND       PRES   REMARKS
SUPERIOR ARPT  CLOUDY    49  25  39 SW6       29.91F
ASHLAND        PTSUNNY   53  23  31 VRB6      29.91F
6HR MIN TEMP:  33; 6HR MAX TEMP:  54;

HAYWARD        CLOUDY    48  26  42 MISG      29.92F
6HR MIN TEMP:  24; 6HR MAX TEMP:  48;

SIREN          RAIN      41  35  79 CALM      29.95F
CUMBERLAND     LGT RAIN  39  34  81 N6        29.96F WCI  35
RICE LAKE      DRIZZLE   42  35  74 W6        29.98F
CHETEK         DRIZZLE   44  35  72 W6        29.97F
LADYSMITH      CLOUDY    51  27  39 W8        29.95F
6HR MIN TEMP:  29; 6HR MAX TEMP:  51;

EAU CLAIRE     LGT RAIN  45  37  73 NE10      29.95F
6HR MIN TEMP:  35; 6HR MAX TEMP:  45; 6HR PCP: TRACE;

MENOMONIE      CLOUDY    46  34  62 NE7       29.97S
NEW RICHMOND   CLOUDY    46  33  61 NE8       29.95S
OSCEOLA        CLOUDY    46  35  64 NE6       29.96F
$$

WIZ003>005-009-010-017-018-301900-
NORTH CENTRAL WISCONSIN

CITY           SKY/WX    TMP DP  RH WIND       PRES   REMARKS
MANITOWISH WTR SUNNY     44  22  42 NW12G21   29.90S
ARBOR VITAE    MOSUNNY   49  27  42 N15G22    29.90S
WOODRUFF       MOSUNNY   49  27  42 N15G22    29.90S
RHINELANDER    SUNNY     49  21  33 NW15G24   29.91S
6HR MIN TEMP:  31; 6HR MAX TEMP:  50;

EAGLE RIVER    MOSUNNY   47  19  33 NW18G25   29.89S
LAND O LAKES   SUNNY     46  21  37 NW7G17    29.90R
PHILLIPS       CLOUDY    48  22  37 W9        29.91F
6HR MIN TEMP:  30; 6HR MAX TEMP:  49;

TOMAHAWK       MOSUNNY   50  22  33 W7G16     29.92S
MEDFORD        CLOUDY    49  28  44 W12G20    29.93S
MERRILL        MOSUNNY   52  24  34 NW13G21   29.92R
$$

WIZ029-030-035-036-043>047-301900-
CENTRAL WISCONSIN

CITY           SKY/WX    TMP DP  RH WIND       PRES   REMARKS
WAUSAU         MOSUNNY   51  23  33 NW12      29.91R
6HR MIN TEMP:  33; 6HR MAX TEMP:  53;

MOSINEE        SUNNY     50  27  40 W15       29.94S
MARSHFIELD     CLOUDY    52  29  41 W10       29.95S
6HR MIN TEMP:  33; 6HR MAX TEMP:  53;

STEVENS POINT  PTSUNNY   50  25  37 NW10      29.94S
WAUPACA        MOSUNNY   56  22  25 NW15      29.93F
WAUTOMA        NOT AVBL
WISC RAPIDS    CLOUDY    54  26  34 NW9       29.96S
6HR MIN TEMP:  32; 6HR MAX TEMP:  54;

CAMP DOUGLAS   NOT AVBL
$$

WIZ011>013-019>022-031-037>040-048>050-301900-
NORTHEAST WISCONSIN

CITY           SKY/WX    TMP DP  RH WIND       PRES   REMARKS
ANTIGO         SUNNY     47  26  42 NW14G22   29.91S
SHAWANO        SUNNY     54  23  30 NW14      29.92F
OCONTO         SUNNY     52  23  31 NW12G20   29.91R
STURGEON BAY   SUNNY     46  28  49 N8        29.95R
6HR MIN TEMP:  36; 6HR MAX TEMP:  46;

GREEN BAY      SUNNY     54  30  40 W14       29.93S
6HR MIN TEMP:  36; 6HR MAX TEMP:  54;

MANITOWOC      NOT AVBL
APPLETON       PTSUNNY   54  23  30 W12G18    29.94S
CLINTONVILLE   SUNNY     54  23  30 NW10G17   29.92F
OSHKOSH        PTSUNNY   54  28  36 W13       29.94F
6HR MIN TEMP:  35; 6HR MAX TEMP:  55;

$$

WIZ032>034-041-042-053>061-301900-
SOUTHWEST WISCONSIN

CITY           SKY/WX    TMP DP  RH WIND       PRES   REMARKS
LA CROSSE      CLOUDY    53  28  38 N5        29.98S
6HR MIN TEMP:  34; 6HR MAX TEMP:  53;

SPARTA         CLOUDY    51  28  41 SW5       29.98S
VIROQUA        CLOUDY    50  30  46 W7        29.98S
BOSCOBEL       PTSUNNY   58  29  33 VRB6      29.98F
6HR MIN TEMP:  29; 6HR MAX TEMP:  59; 6HR PCP: TRACE;

PRAIRIE DU CHI CLOUDY    59  30  33 W6        29.97F
PLATTEVILLE    MOSUNNY   59  32  36 SW16      29.98F
$$

WIZ056-057-062-063-064-067-068-301900-
SOUTH CENTRAL WISCONSIN

CITY           SKY/WX    TMP DP  RH WIND       PRES   REMARKS
REEDSBURG      PTSUNNY   52  30  42 W9        29.96S
BARABOO/DELLS  PTSUNNY   53  28  36 W10       29.96S
LONE ROCK      NOT AVBL
MINERAL POINT  MOSUNNY   50  30  46 W6        29.98F
MADISON        PTSUNNY   57  28  33 W9        29.96F
6HR MIN TEMP:  35; 6HR MAX TEMP:  57;

MIDDLETON      FAIR      59  25  27 W13       29.97S
WATERTOWN      MOSUNNY   56  32  39 W8        29.95F
MONROE         FAIR      55  32  41 W16G26    29.99S
JANESVILLE     MOSUNNY   57  27  30 W16       29.98F
$$

WIZ051-052-058>065-066-070>072-301900-
SOUTHEAST WISCONSIN

CITY           SKY/WX    TMP DP  RH WIND       PRES   REMARKS
MILWAUKEE      PTSUNNY   57  25  29 NW13G21   29.97F
6HR MIN TEMP:  37; 6HR MAX TEMP:  57;

WAUKESHA       PTSUNNY   54  28  37 W12G21    29.97F
MILWAUKEE/TIMM NOT AVBL
RACINE         PTSUNNY   58  27  30 W13       29.99F
6HR MIN TEMP:  34; 6HR MAX TEMP:  58;

BURLINGTON     MOSUNNY   54  28  36 W14G20    29.99S
KENOSHA        MOSUNNY   58  32  37 W17       29.98F
6HR MIN TEMP:  32; 6HR MAX TEMP:  58;

FOND DU LAC    PTSUNNY   54  30  40 W9        29.94F
6HR MIN TEMP:  33; 6HR MAX TEMP:  55;

SHEBOYGAN      SUNNY     53  29  39 W14       29.95S
6HR MIN TEMP:  37; 6HR MAX TEMP:  53;

WEST BEND      MOSUNNY   54  27  35 W13G20    29.95F
JUNEAU         MOSUNNY   53  32  45 SW10G17   29.96F
$$

LSZ147-162-301900-
LAKE SUPERIOR

STATION/POSITION TIME  TEMP    WIND        PRES    WAVE
                       AIR SEA DIR/SP/G            HT/PER
                 (UTC) (F)     (DEG/KT/KT) (MB)    (FT/S)
DEVILS ISLAND    1700   37     240/ 13/ 15 1014.1S
PORT WING        1700   44     290/  4/  5 1013.9S
SAXON HARBOR     1700   44        CALM     1013.9
$$

LMZ867-665-643>646-301900-
LAKE MICHIGAN

STATION/POSITION TIME  TEMP    WIND        PRES    WAVE
                       AIR SEA DIR/SP/G            HT/PER
                 (UTC) (F)     (DEG/KT/KT) (MB)    (FT/S)
NORTHPORT PIER   1700   38     340/  2/  3 1013.2R
KEWAUNEE LAKESHO 1700   49     300/ 10/ 19 1012.2F
SHEBOYGAN LAKESH 1700   50     280/ 14/ 17 1014.6F
PORT WASHINGTON  1700   54     310/  8/ 15 1015.2F
MILWAUKEE LAKESH 1700   52     300/ 13/ 16   N/A
KENOSHA   LAKESH 1700   53     280/ 15/ 21 1015.6F
$$

TC  - TEMPERATURE IN CELSIUS
VSB - VISIBILITY IN STATUTE MILES
WCI - WIND CHILL INDEX
HX  - HEAT INDEX




USA.gov is the U.S. government's official web portal to all federal, state and local government web resources and services.